Location: D?uga
(50.2667°N, 19.7833°E)
Time: 02:21:19
(UTC+00:00)

H-2A R/B - Pass Details

Date: 23 May 2024
Orbit: 553 x 571 km, 98.1° (Epoch: 18 June)

Event Time Altitude Azimuth Distance (km) Brightness Sun altitude
Rises 00:35:40 0° 14° (NNE) 2,760 8.5 -14.4°
Reaches altitude 10° 00:37:49 10° 15° (NNE) 1,856 7.3 -14.3°
Maximum altitude 00:41:51 85° 105° (ESE) 565 3.3 -14.0°
Enters shadow 00:44:21 22° 193° (SSW) 1,242 4.5 -13.8°
